Simultaneous Nadir Overpasses (SNOs) Predictions

Prediction of SNOs between AQUA and NPP Satellite Orbit:

Table of predicted SNOs for the next 14.0 days since TLE Epoch: 9/25/2021
Index Date (AQUA) Time (AQUA) Lat,Lon (AQUA) SZA (AQUA ) Date (NPP) Time (NPP) Lat,Lon (NPP) SZA (NPP ) Distance(km) Time Diff (sec)
1 09/27/2021 05:32:34 74.92, -27.05 99.58 09/27/2021 05:32:03 74.91, -27.11 99.62 2.08 31
2 09/27/2021 06:21:31 -76.40, 144.90 82.04 09/27/2021 06:22:16 -76.41, 145.00 82.10 2.70 45
3 09/29/2021 21:48:47 75.71, 90.99 99.69 09/29/2021 21:48:41 75.72, 91.09 99.67 2.87 6
4 09/29/2021 22:37:55 -76.67, -98.30 81.37 09/29/2021 22:39:06 -76.67, -98.22 81.46 2.22 71
5 10/02/2021 13:16:09 -74.82, 36.80 78.41 10/02/2021 13:15:12 -74.83, 36.87 78.37 2.25 57
6 10/02/2021 14:05:09 76.07,-152.02 100.26 10/02/2021 14:05:29 76.08,-151.92 100.21 2.94 20
7 10/05/2021 05:32:38 -74.83, 152.72 77.46 10/05/2021 05:32:08 -74.82, 152.63 77.41 2.71 30
8 10/05/2021 06:21:38 76.08, -36.10 101.21 10/05/2021 06:22:25 76.07, -36.17 101.18 2.03 47
9 10/07/2021 21:05:43 54.32, 79.00 122.57 10/07/2021 21:04:31 54.53, 77.62 123.13 92.62 72
10 10/07/2021 21:48:56 -75.39, -89.92 77.10 10/07/2021 21:48:52 -75.38, -89.96 77.09 1.03 4



Historial Predications of SNOs between AQUA and NPP
